| time (UTC) | temp C | wind direction | speed KPH | gust KPH | rain 1hr cm | rain 24hr cm | rain mn cm | humidity % | barometer mb |
| 20260906113022 | -17 | 0.0 | 0.0 | 0.00 | 0.08 | 0.00 | 1015.0 | ||
| 20260906111518 | -17 | 0.0 | 0.0 | 0.00 | 0.08 | 0.00 | 1014.9 | ||
| 20260906110013 | -17 | 0.0 | 0.0 | 0.00 | 0.08 | 0.00 | 1014.7 | ||
| 20260906104509 | -17 | 0.0 | 0.0 | 0.00 | 0.08 | 0.00 | 1014.7 | ||
| 20260906103012 | -17 | 0.0 | 0.0 | 0.00 | 0.08 | 0.00 | 1014.5 | ||
| 20260906101612 | -17 | 0.0 | 0.0 | 0.00 | 0.08 | 0.08 | 1014.5 | ||
| 20260906100057 | -17 | 0.0 | 0.0 | 0.00 | 0.08 | 0.08 | 1014.4 | ||
| 20260906094539 | -17 | 0.0 | 0.0 | 0.00 | 0.08 | 0.08 | 1014.3 | ||
| 20260906093029 | -17 | 0.0 | 0.0 | 0.00 | 0.08 | 0.08 | 1014.3 | ||
| 20260906091526 | -17 | 0.0 | 0.0 | 0.00 | 0.08 | 0.08 | 1014.3 | ||
| 20260906090020 | -17 | 0.0 | 0.0 | 0.00 | 0.08 | 0.08 | 1014.2 | ||
| 20260906084517 | -17 | 0.0 | 0.0 | 0.00 | 0.08 | 0.08 | 1013.9 | ||
| 20260906083010 | -17 | 0.0 | 0.0 | 0.00 | 0.08 | 0.08 | 1013.9 | ||
| 20260906081508 | -17 | 0.0 | 0.0 | 0.00 | 0.08 | 0.08 | 1014.0 | ||
| 20260906080003 | -17 | 0.0 | 0.0 | 0.00 | 0.08 | 0.08 | 1013.9 | ||
| 20260906074543 | 19 | 153 | 0.0 | 3.2 | 0.00 | 0.08 | 0.08 | 90 | 1013.8 |
| 20260906073040 | 20 | 161 | 0.0 | 3.2 | 0.00 | 0.08 | 0.08 | 91 | 1013.8 |
| 20260906071527 | 20 | 155 | 0.0 | 1.6 | 0.00 | 0.08 | 0.08 | 91 | 1013.8 |
| 20260906070022 | 20 | 155 | 1.6 | 6.4 | 0.00 | 0.08 | 0.08 | 91 | 1013.9 |
| 20260906064504 | 20 | 158 | 0.0 | 4.8 | 0.00 | 0.08 | 0.08 | 91 | 1013.8 |
| 20260906063002 | 21 | 155 | 0.0 | 4.8 | 0.00 | 0.08 | 0.08 | 91 | 1013.9 |
| 20260906061547 | 21 | 154 | 0.0 | 4.8 | 0.00 | 0.08 | 0.08 | 92 | 1014.0 |
| 20260906060052 | 21 | 154 | 0.0 | 6.4 | 0.00 | 0.08 | 0.08 | 92 | 1014.0 |
| 20260906054529 | 21 | 151 | 1.6 | 4.8 | 0.00 | 0.08 | 0.08 | 92 | 1013.8 |
| 20260906053027 | 21 | 145 | 0.0 | 3.2 | 0.00 | 0.08 | 0.08 | 91 | 1013.6 |
| 20260906051527 | 22 | 115 | 0.0 | 0.0 | 0.00 | 0.08 | 0.08 | 91 | 1013.6 |
| 20260906050027 | 22 | 141 | 0.0 | 1.6 | 0.00 | 0.08 | 0.08 | 91 | 1013.3 |
| 20260906044526 | 22 | 133 | 0.0 | 1.6 | 0.00 | 0.08 | 0.08 | 92 | 1013.1 |
| 20260906043031 | 22 | 141 | 0.0 | 6.4 | 0.00 | 0.08 | 0.08 | 92 | 1012.9 |
| 20260906041525 | 22 | 137 | 0.0 | 4.8 | 0.00 | 0.08 | 0.08 | 93 | 1012.9 |
| 20260906040025 | 23 | 152 | 0.0 | 1.6 | 0.00 | 0.08 | 0.08 | 92 | 1012.8 |
| 20260906034506 | 23 | 146 | 0.0 | 6.4 | 0.00 | 0.08 | 0.08 | 92 | 1012.8 |
| 20260906033006 | 23 | 151 | 0.0 | 6.4 | 0.00 | 0.08 | 0.08 | 92 | 1012.6 |
| 20260906031549 | 23 | 153 | 0.0 | 4.8 | 0.00 | 0.08 | 0.08 | 92 | 1012.8 |
| 20260906030048 | 23 | 162 | 0.0 | 3.2 | 0.00 | 0.08 | 0.08 | 91 | 1012.8 |
| 20260906024531 | 23 | 159 | 0.0 | 6.4 | 0.00 | 0.08 | 0.08 | 91 | 1012.9 |
| 20260906023030 | 24 | 163 | 0.0 | 1.6 | 0.00 | 0.08 | 0.08 | 90 | 1012.9 |
| 20260906021512 | 24 | 162 | 0.0 | 1.6 | 0.00 | 0.08 | 0.08 | 90 | 1012.9 |
| 20260906020011 | 25 | 162 | 0.0 | 0.0 | 0.00 | 0.08 | 0.08 | 89 | 1012.8 |
| 20260906014553 | 25 | 162 | 0.0 | 3.2 | 0.00 | 0.08 | 0.08 | 89 | 1012.8 |
| 20260906013053 | 25 | 162 | 0.0 | 0.0 | 0.00 | 0.08 | 0.08 | 89 | 1012.6 |
| 20260906011540 | 25 | 162 | 0.0 | 1.6 | 0.00 | 0.08 | 0.08 | 90 | 1012.4 |
| 20260906010053 | 25 | 165 | 0.0 | 1.6 | 0.00 | 0.08 | 0.08 | 90 | 1012.2 |
| 20260906004552 | 25 | 179 | 0.0 | 3.2 | 0.00 | 0.08 | 0.08 | 89 | 1012.1 |
| 20260906003039 | 26 | 163 | 0.0 | 0.0 | 0.00 | 0.08 | 0.08 | 89 | 1011.8 |
| 20260906001555 | 26 | 163 | 0.0 | 0.0 | 0.00 | 0.08 | 0.08 | 89 | 1011.7 |
| 20260906000038 | 26 | 163 | 0.0 | 0.0 | 0.08 | 0.08 | 0.08 | 89 | 1011.7 |
| 20260905234538 | 26 | 163 | 0.0 | 0.0 | 0.08 | 0.08 | 0.08 | 89 | 1011.7 |
| 20260905233037 | 26 | 165 | 0.0 | 3.2 | 0.08 | 0.08 | 0.08 | 88 | 1011.5 |
| 20260905231523 | 26 | 162 | 1.6 | 11.3 | 0.08 | 0.08 | 0.08 | 86 | 1011.6 |
| 20260905230021 | 28 | 159 | 1.6 | 4.8 | 0.00 | 0.00 | 0.00 | 78 | 1011.4 |
| 20260905224600 | 28 | 163 | 0.0 | 0.0 | 0.00 | 0.00 | 0.00 | 76 | 1011.3 |
| 20260905223100 | 28 | 163 | 0.0 | 4.8 | 0.00 | 0.00 | 0.00 | 76 | 1011.1 |
| 20260905221543 | 29 | 154 | 0.0 | 1.6 | 0.00 | 0.00 | 0.00 | 72 | 1011.1 |
| 20260905220041 | 30 | 152 | 0.0 | 3.2 | 0.00 | 0.00 | 0.00 | 68 | 1011.1 |
| 20260905214523 | 32 | 333 | 0.0 | 8.0 | 0.00 | 0.00 | 0.00 | 61 | 1010.8 |
| 20260905213022 | 33 | 165 | 0.0 | 6.4 | 0.00 | 0.00 | 0.00 | 54 | 1010.9 |
| 20260905211504 | 35 | 165 | 0.0 | 8.0 | 0.00 | 0.28 | 0.00 | 52 | 1010.9 |
| 20260905210000 | 35 | 235 | 0.0 | 6.4 | 0.00 | 0.28 | 0.00 | 52 | 1011.1 |
| 20260905204546 | 35 | 167 | 0.0 | 9.7 | 0.00 | 0.28 | 0.00 | 52 | 1011.3 |
| 20260905203046 | 34 | 47 | 0.0 | 8.0 | 0.00 | 0.28 | 0.00 | 53 | 1011.3 |
| 20260905201541 | 34 | 307 | 0.0 | 1.6 | 0.00 | 0.28 | 0.00 | 53 | 1011.6 |
| 20260905200108 | 33 | 319 | 0.0 | 6.4 | 0.00 | 0.28 | 0.00 | 53 | 1011.8 |
| 20260905194537 | 34 | 165 | 0.0 | 6.4 | 0.00 | 0.28 | 0.00 | 52 | 1012.0 |
| 20260905193040 | 33 | 162 | 0.0 | 6.4 | 0.00 | 0.28 | 0.00 | 53 | 1012.2 |
| 20260905191534 | 34 | 175 | 0.0 | 3.2 | 0.00 | 0.28 | 0.00 | 52 | 1012.4 |
| 20260905190029 | 33 | 162 | 0.0 | 4.8 | 0.00 | 0.28 | 0.00 | 52 | 1012.7 |
| 20260905184534 | 33 | 168 | 0.0 | 4.8 | 0.00 | 0.28 | 0.00 | 54 | 1012.9 |
| 20260905183007 | 33 | 164 | 0.0 | 3.2 | 0.00 | 0.28 | 0.00 | 56 | 1013.0 |
| 20260905181504 | 31 | 148 | 0.0 | 3.2 | 0.00 | 0.28 | 0.00 | 59 | 1013.0 |
| 20260905180045 | 30 | 135 | 0.0 | 4.8 | 0.00 | 0.28 | 0.00 | 63 | 1013.1 |
| 20260905174545 | 29 | 165 | 1.6 | 8.0 | 0.00 | 0.28 | 0.00 | 67 | 1013.2 |
| 20260905173042 | 30 | 160 | 0.0 | 6.4 | 0.00 | 0.28 | 0.00 | 63 | 1013.3 |
| 20260905171537 | 30 | 26 | 0.0 | 3.2 | 0.00 | 0.28 | 0.00 | 62 | 1012.8 |
| 20260905170032 | 30 | 226 | 0.0 | 4.8 | 0.00 | 0.28 | 0.00 | 61 | 1013.0 |
| 20260905164530 | 31 | 166 | 1.6 | 6.4 | 0.00 | 0.28 | 0.00 | 59 | 1013.2 |
| 20260905163027 | 29 | 15 | 0.0 | 6.4 | 0.00 | 0.28 | 0.00 | 65 | 1013.4 |
| 20260905161522 | 28 | 4 | 1.6 | 6.4 | 0.00 | 0.28 | 0.00 | 65 | 1013.2 |
| 20260905160022 | 28 | 33 | 0.0 | 4.8 | 0.00 | 0.28 | 0.00 | 62 | 1013.5 |
| 20260905154518 | 27 | 329 | 0.0 | 4.8 | 0.00 | 0.28 | 0.00 | 67 | 1013.5 |
| 20260905153004 | 27 | 101 | 0.0 | 6.4 | 0.00 | 0.28 | 0.00 | 70 | 1013.6 |
| 20260905151501 | 26 | 354 | 1.6 | 14.5 | 0.00 | 0.28 | 0.00 | 70 | 1013.4 |
| 20260905150058 | 26 | 46 | 1.6 | 6.4 | 0.00 | 0.28 | 0.00 | 73 | 1013.2 |
| 20260905144555 | 25 | 163 | 1.6 | 8.0 | 0.00 | 0.28 | 0.00 | 77 | 1013.1 |
| 20260905143051 | 24 | 206 | 3.2 | 12.9 | 0.00 | 0.28 | 0.00 | 80 | 1013.2 |
| 20260905141546 | 23 | 188 | 3.2 | 11.3 | 0.00 | 0.28 | 0.00 | 83 | 1013.1 |
| 20260905140041 | 22 | 163 | 3.2 | 8.0 | 0.00 | 0.28 | 0.00 | 86 | 1013.3 |
| 20260905134540 | 22 | 23 | 1.6 | 6.4 | 0.00 | 0.28 | 0.00 | 87 | 1013.8 |
| 20260905133022 | 21 | 41 | 0.0 | 3.2 | 0.00 | 0.28 | 0.00 | 91 | 1013.9 |
| 20260905131518 | -17 | 0.0 | 0.0 | 0.00 | 0.28 | 0.00 | 1014.6 | ||
| 20260905130014 | -17 | 0.0 | 0.0 | 0.00 | 0.28 | 0.00 | 1014.7 | ||
| 20260905124515 | -17 | 0.0 | 0.0 | 0.00 | 0.28 | 0.00 | 1014.6 | ||
| 20260905123018 | -17 | 0.0 | 0.0 | 0.00 | 0.28 | 0.00 | 1014.7 | ||
| 20260905121600 | -17 | 0.0 | 0.0 | 0.00 | 0.28 | 0.00 | 1014.7 | ||
| 20260905120056 | -17 | 0.0 | 0.0 | 0.00 | 0.28 | 0.00 | 1014.8 | ||
| 20260905114552 | -17 | 0.0 | 0.0 | 0.00 | 0.28 | 0.00 | 1014.8 |